Satellite-Ground Cal/Val Region Overpasses Predictions

Prediction of Satellite NPP Overpassing Cal/Val Region: PacNW

Region Location: (Latitude: 10.00, Longitude: 139.50) to (Latitude: 22.70, Longitude: 165.60).

Table of predicted overpasses for the next 14.0 days since TLE Epoch: 5/28/2016
Interval Starting Time Starting Location Ending Time Ending Location
1 05/28/2016 14:40:30 ( 22.68, 165.03) 05/28/2016 14:44:05 ( 10.06, 162.03)
2 05/28/2016 16:22:00 ( 22.67, 139.66) 05/28/2016 16:22:10 ( 22.09, 139.51)
3 05/29/2016 03:31:05 ( 10.01, 147.19) 05/29/2016 03:34:41 ( 22.69, 144.17)
4 05/29/2016 16:02:59 ( 22.64, 144.41) 05/29/2016 16:06:34 ( 10.02, 141.41)
5 05/30/2016 03:12:04 ( 10.04, 151.94) 05/30/2016 03:15:39 ( 22.66, 148.94)
6 05/30/2016 15:43:56 ( 22.67, 149.17) 05/30/2016 15:47:31 ( 10.05, 146.17)
7 05/31/2016 02:53:01 ( 10.01, 156.70) 05/31/2016 02:56:37 ( 22.69, 153.69)
8 05/31/2016 15:24:55 ( 22.64, 153.92) 05/31/2016 15:28:30 ( 10.02, 150.92)
9 06/01/2016 02:34:00 ( 10.04, 161.45) 06/01/2016 02:37:35 ( 22.66, 158.45)
10 06/01/2016 15:05:52 ( 22.67, 158.68) 06/01/2016 15:09:27 ( 10.05, 155.68)
11 06/02/2016 02:15:43 ( 12.71, 165.60) 06/02/2016 02:18:33 ( 22.69, 163.20)
12 06/02/2016 03:56:27 ( 10.02, 140.84) 06/02/2016 03:58:05 ( 15.77, 139.51)
13 06/02/2016 14:46:50 ( 22.70, 163.45) 06/02/2016 14:50:26 ( 10.02, 160.43)
14 06/03/2016 03:37:26 ( 10.05, 145.59) 06/03/2016 03:41:01 ( 22.67, 142.59)
15 06/03/2016 14:30:54 ( 11.75, 165.59) 06/03/2016 14:31:23 ( 10.05, 165.20)
16 06/03/2016 16:09:18 ( 22.66, 142.82) 06/03/2016 16:12:53 ( 10.04, 139.82)
17 06/04/2016 03:18:23 ( 10.02, 150.35) 06/04/2016 03:21:58 ( 22.64, 147.35)
18 06/04/2016 15:50:16 ( 22.69, 147.59) 06/04/2016 15:53:52 ( 10.01, 144.57)
19 06/05/2016 02:59:22 ( 10.05, 155.10) 06/05/2016 03:02:57 ( 22.68, 152.10)
20 06/05/2016 15:31:14 ( 22.66, 152.33) 06/05/2016 15:34:49 ( 10.03, 149.33)
21 06/06/2016 02:40:19 ( 10.03, 159.87) 06/06/2016 02:43:54 ( 22.65, 156.87)
22 06/06/2016 15:12:12 ( 22.68, 157.10) 06/06/2016 15:15:48 ( 10.00, 154.08)
23
